This is the latest recevied weather packets stored in our database for station/object K1RFS. If no packets are shown the sender has not sent any weather packets the latest 10 day(s).
| Time | Temp. | Humidity | Pressure | Rain* | Wind** | Luminosity | Snow |
|---|---|---|---|---|---|---|---|
| 1777822069 | 16.11° C | 35% | 1001.5 hPa | 0 mm | - | 67 W/m² | - |
| 1777821767 | 15.56° C | 36% | 1001.5 hPa | 0 mm | - | 64 W/m² | - |
| 1777821464 | 15.56° C | 37% | 1001.6 hPa | 0 mm | - | 61 W/m² | - |
| 1777821162 | 15° C | 38% | 1001.8 hPa | 0 mm | - | 59 W/m² | - |
| 1777820858 | 15° C | 38% | 1001.6 hPa | 0 mm | - | 58 W/m² | - |
| 1777820554 | 14.44° C | 38% | 1001.6 hPa | 0 mm | - | 60 W/m² | - |
| 1777820251 | 14.44° C | 37% | 1001.7 hPa | 0 mm | - | 61 W/m² | - |
| 1777819949 | 14.44° C | 38% | 1001.6 hPa | 0 mm | - | 61 W/m² | - |
| 1777819646 | 13.89° C | 37% | 1001.7 hPa | 0 mm | - | 62 W/m² | - |
| 1777819344 | 13.89° C | 38% | 1001.6 hPa | 0 mm | - | 61 W/m² | - |
| 1777819040 | 13.33° C | 38% | 1001.6 hPa | 0 mm | - | 59 W/m² | - |
| 1777818738 | 13.33° C | 39% | 1001.8 hPa | 0 mm | - | 58 W/m² | - |
| 1777818434 | 13.33° C | 39% | 1001.7 hPa | 0 mm | - | 55 W/m² | - |
| 1777818131 | 13.33° C | 37% | 1001.8 hPa | 0 mm | - | 53 W/m² | - |
| 1777817827 | 13.33° C | 34% | 1001.5 hPa | 0 mm | - | 50 W/m² | - |
| 1777817525 | 13.33° C | 33% | 1001.5 hPa | 0 mm | - | 48 W/m² | - |
| 1777817221 | 12.78° C | 34% | 1001.5 hPa | 0 mm | - | 47 W/m² | - |
| 1777816919 | 12.78° C | 36% | 1001.4 hPa | 0 mm | - | 45 W/m² | - |
| 1777816615 | 12.22° C | 34% | 1001.6 hPa | 0 mm | - | 42 W/m² | - |
| 1777816312 | 12.22° C | 33% | 1001.6 hPa | 0 mm | - | 41 W/m² | - |
| 1777816010 | 12.22° C | 33% | 1001.5 hPa | 0 mm | - | 38 W/m² | - |
| 1777815707 | 11.67° C | 33% | 1001.3 hPa | 0 mm | - | 36 W/m² | - |
| 1777815404 | 11.11° C | 33% | 1001.5 hPa | 0 mm | - | 33 W/m² | - |
| 1777815101 | 10.56° C | 33% | 1001.3 hPa | 0 mm | - | 30 W/m² | - |
| 1777814797 | 10.56° C | 33% | 1001.2 hPa | 0 mm | - | 27 W/m² | - |
* Rain latest hour (hover to see other rain measurements)
** Current wind speed in m/s (hover to see current wind gust speed)